Date String (YYYY-MM-DD hh:mm:ss) UTC,Instrument flags,Ambient pressure (hPa),Sample flow (lpm),Bypass flow (lpm),Sample temperature (°C),Ambient temperature (°C),ASC tube jacket temperature (°C),LED temperature (°C),Box temperature (°C),Sample RH (%),Span deviation,Mass concentration (μg/m³),Mass concentration (μg/m³),Mass concentration (μg/m³)
DateTimeUTC,F1_M11,P_M11,Q1_M11,Q2_M11,T1_M11,T2_M11,T3_M11,T4_M11,T5_M11,U1_M11,ZSPAN_M11,X0_M11,X2_M11,X1_M11
2022-10-25 10:00:00,,0820.7,5.02,0.00,22.4,20.9,00.0,31.3,24.4,11.2,0000.0,0002.70,0002.00,0001.75
2022-10-25 10:01:00,,0820.7,4.98,0.00,22.4,21.0,00.0,31.3,24.3,11.2,0000.0,0002.69,0001.97,0001.74
2022-10-25 10:02:00,,0820.7,5.00,0.00,22.4,20.9,00.0,31.3,24.3,11.2,0000.0,0002.66,0001.95,0001.74
2022-10-25 10:03:00,,0820.7,5.01,0.00,22.4,20.9,00.0,31.3,24.3,11.2,0000.0,0002.65,0001.95,0001.73
2022-10-25 10:04:00,,0820.7,4.98,0.00,22.4,20.9,00.0,31.3,24.3,11.2,0000.0,0003.43,0002.00,0001.73
2022-10-25 10:05:00,,0820.7,5.01,0.00,22.4,20.9,00.0,31.3,24.3,11.2,0000.0,0003.38,0001.96,0001.73
2022-10-25 10:06:00,,0820.7,5.01,0.00,22.4,20.9,00.0,31.3,24.3,11.2,0000.0,0003.33,0001.94,0001.73
2022-10-25 10:07:00,,0820.7,4.98,0.00,22.4,20.9,00.0,31.3,24.3,11.2,0000.0,0003.34,0001.94,0001.73
2022-10-25 10:08:00,,0820.7,5.00,0.00,22.4,20.9,00.0,31.3,24.3,11.2,0000.0,0003.35,0001.94,0001.73
2022-10-25 10:09:00,,0820.8,5.00,0.00,22.4,20.9,00.0,31.3,24.3,11.2,0000.0,0004.07,0001.91,0001.71
2022-10-25 10:10:00,,0820.8,5.00,0.00,22.4,20.9,00.0,31.3,24.3,11.2,0000.0,0004.30,0001.92,0001.72
2022-10-25 10:11:00,,0820.8,5.00,0.00,22.4,20.9,00.0,31.3,24.3,11.2,0000.0,0004.39,0001.93,0001.72
2022-10-25 10:12:00,,0820.8,5.00,0.00,22.4,20.9,00.0,31.3,24.4,11.2,0000.0,0004.36,0001.93,0001.70
2022-10-25 10:13:00,,0820.7,5.00,0.00,22.4,20.9,00.0,31.3,24.3,11.2,0000.0,0004.36,0001.94,0001.69
2022-10-25 10:14:00,,0820.6,5.00,0.00,22.4,20.9,00.0,31.3,24.3,11.2,0000.0,0004.40,0001.92,0001.67
2022-10-25 10:15:00,,0820.7,5.00,0.00,22.4,20.9,00.0,31.3,24.3,11.2,0000.0,0003.56,0001.84,0001.64
2022-10-25 10:16:00,,0820.7,4.97,0.00,22.4,20.9,00.0,31.3,24.3,11.2,0000.0,0003.53,0001.82,0001.62
2022-10-25 10:17:00,,0820.8,5.02,0.00,22.4,20.9,00.0,31.3,24.3,11.2,0000.0,0003.52,0001.81,0001.60
2022-10-25 10:18:00,,0820.8,5.00,0.00,22.4,20.9,00.0,31.3,24.3,11.3,0000.0,0003.43,0001.76,0001.57
2022-10-25 10:19:00,,0820.8,4.98,0.00,22.4,20.9,00.0,31.3,24.3,11.3,0000.0,0003.44,0001.75,0001.55
2022-10-25 10:20:00,,0820.9,5.01,0.00,22.4,20.9,00.0,31.3,24.2,11.3,0000.0,0002.58,0001.72,0001.53
2022-10-25 10:21:00,,0820.7,5.00,0.00,22.4,20.9,00.0,31.3,24.3,11.3,0000.0,0002.37,0001.70,0001.51
2022-10-25 10:22:00,,0820.7,5.00,0.00,22.4,20.9,00.0,31.3,24.2,11.4,0000.0,0002.26,0001.66,0001.49
2022-10-25 10:23:00,,0820.7,4.97,0.00,22.4,20.9,00.0,31.3,24.3,11.5,0000.0,0002.17,0001.62,0001.47
2022-10-25 10:24:00,,0820.7,5.00,0.00,22.4,20.9,00.0,31.3,24.2,11.5,0000.0,0002.16,0001.61,0001.46
2022-10-25 10:25:00,,0820.6,5.00,0.00,22.4,20.9,00.0,31.3,24.3,11.4,0000.0,0002.01,0001.60,0001.45
2022-10-25 10:26:00,,0820.7,5.02,0.00,22.4,20.9,00.0,31.3,24.3,11.4,0000.0,0002.23,0001.61,0001.45
2022-10-25 10:27:00,,0820.7,5.00,0.00,22.4,20.9,00.0,31.3,24.3,11.5,0000.0,0002.26,0001.61,0001.44
2022-10-25 10:28:00,,0820.7,4.98,0.00,22.4,20.9,00.0,31.3,24.3,11.6,0000.0,0002.24,0001.59,0001.42
2022-10-25 10:29:00,,0820.7,5.02,0.00,22.4,20.9,00.0,31.3,24.2,11.7,0000.0,0002.26,0001.60,0001.41
2022-10-25 10:30:00,,0820.7,5.01,0.00,22.4,20.9,00.0,31.3,24.2,11.7,0000.0,0002.20,0001.59,0001.40
2022-10-25 10:31:00,,0820.7,5.00,0.00,22.4,20.9,00.0,31.3,24.3,11.7,0000.0,0002.22,0001.58,0001.39
2022-10-25 10:32:00,,0820.6,5.00,0.00,22.4,20.9,00.0,31.3,24.3,11.7,0000.0,0002.19,0001.54,0001.36
2022-10-25 10:33:00,,0820.6,5.01,0.00,22.4,20.9,00.0,31.3,24.3,11.7,0000.0,0002.29,0001.55,0001.35
2022-10-25 10:34:00,,0820.6,5.01,0.00,22.4,20.8,00.0,31.3,24.3,11.7,0000.0,0002.40,0001.58,0001.35
2022-10-25 10:35:00,,0820.6,4.98,0.00,22.4,20.8,00.0,31.3,24.2,11.7,0000.0,0002.44,0001.56,0001.34
2022-10-25 10:36:00,,0820.6,5.00,0.00,22.4,20.8,00.0,31.3,24.2,11.7,0000.0,0002.46,0001.56,0001.33
2022-10-25 10:37:00,,0820.6,5.00,0.00,22.3,20.7,00.0,31.3,24.1,11.7,0000.0,0002.27,0001.54,0001.32
2022-10-25 10:38:00,,0820.6,5.00,0.00,22.3,20.7,00.0,31.3,24.2,11.6,0000.0,0002.23,0001.54,0001.32
2022-10-25 10:39:00,,0820.6,5.00,0.00,22.3,20.7,00.0,31.2,24.2,11.6,0000.0,0002.21,0001.54,0001.32
2022-10-25 10:40:00,,0820.6,5.00,0.00,22.3,20.7,00.0,31.2,24.2,11.6,0000.0,0002.20,0001.53,0001.32
2022-10-25 10:41:00,,0820.6,5.00,0.00,22.3,20.8,00.0,31.2,24.2,11.7,0000.0,0002.18,0001.52,0001.32
2022-10-25 10:42:00,,0820.6,5.00,0.00,22.3,20.8,00.0,31.2,24.2,11.7,0000.0,0002.15,0001.51,0001.32
2022-10-25 10:43:00,,0820.6,5.00,0.00,22.3,20.8,00.0,31.2,24.2,11.7,0000.0,0002.09,0001.50,0001.32
2022-10-25 10:44:00,,0820.7,4.97,0.00,22.3,20.8,00.0,31.2,24.2,11.7,0000.0,0001.98,0001.49,0001.33
2022-10-25 10:45:00,,0820.7,5.02,0.00,22.3,20.8,00.0,31.2,24.1,11.7,0000.0,0001.92,0001.49,0001.33
2022-10-25 10:46:00,,0820.7,4.98,0.00,22.3,20.8,00.0,31.2,24.2,11.6,0000.0,0001.88,0001.50,0001.34
2022-10-25 10:47:00,,0820.8,5.02,0.00,22.3,20.8,00.0,31.2,24.2,11.6,0000.0,0001.91,0001.53,0001.35
2022-10-25 10:48:00,,0820.7,5.00,0.00,22.3,20.8,00.0,31.2,24.2,11.6,0000.0,0001.95,0001.55,0001.36
2022-10-25 10:49:00,,0820.7,5.00,0.00,22.3,20.8,00.0,31.2,24.2,11.6,0000.0,0002.04,0001.57,0001.37
2022-10-25 10:50:00,,0820.8,5.00,0.00,22.3,20.8,00.0,31.2,24.3,11.6,0000.0,0002.09,0001.60,0001.38
2022-10-25 10:51:00,,0820.9,4.97,0.00,22.3,20.9,00.0,31.2,24.2,11.6,0000.0,0002.11,0001.60,0001.39
2022-10-25 10:52:00,,0820.8,5.02,0.00,22.3,20.9,00.0,31.2,24.3,11.6,0000.0,0002.49,0001.63,0001.40
2022-10-25 10:53:00,,0820.8,4.98,0.00,22.3,20.9,00.0,31.2,24.2,11.6,0000.0,0002.64,0001.69,0001.41
2022-10-25 10:54:00,,0820.8,5.02,0.00,22.3,20.9,00.0,31.2,24.2,11.6,0000.0,0002.65,0001.71,0001.42
2022-10-25 10:55:00,,0820.7,4.98,0.00,22.3,20.9,00.0,31.2,24.2,11.6,0000.0,0002.64,0001.70,0001.41
2022-10-25 10:56:00,,0820.7,5.00,0.00,22.4,20.9,00.0,31.2,24.3,11.6,0000.0,0002.63,0001.69,0001.41
2022-10-25 10:57:00,,0820.7,5.02,0.00,22.4,20.9,00.0,31.2,24.2,11.6,0000.0,0002.67,0001.70,0001.41
2022-10-25 10:58:00,,0820.8,5.01,0.00,22.4,21.0,00.0,31.2,24.3,11.7,0000.0,0002.63,0001.70,0001.41
2022-10-25 10:59:00,,0820.8,4.99,0.00,22.4,20.9,00.0,31.2,24.3,11.7,0000.0,0002.61,0001.70,0001.41
